#timestamp,LO_Frequency,Hit,StdDev 
1663758015.5,286046997.1,P
1663758035.3,286046998.9,N
1663758055.2,286046996.5,Y
1663758075.9,286046998.3,P
1663758095.7,286046999.0,P
1663758115.6,286046999.0,N
1663758135.4,286046999.3,N
1663758155.2,286046997.7,Y
1663758175.1,286046998.9,P
1663758176.0,286046998.9,P
1663758195.8,286047000.5,P
1663758215.7,286047000.1,N
1663758235.5,286047000.3,N
1663758255.3,286047000.7,N
1663758275.2,286046998.1,N
1663758295.0,286046998.3,N
1663758295.9,286046998.3,N
1663758315.8,286047000.5,N
1663758335.6,286047000.1,N
1663758355.4,286046999.7,N
1663758375.3,286047000.2,N
1663758395.1,286047000.7,N
1663758415.8,286047002.8,N
1663758435.7,286047002.5,N
1663758455.5,286047000.3,N
1663758475.3,286046999.7,N
1663758495.2,286047002.6,N
1663758515.0,286047001.4,N
1663758515.9,286047001.4,N
1663758535.8,286047001.9,N
1663758555.6,286047001.3,N
1663758575.4,286047001.8,N
1663758595.3,286047002.8,N
1663758615.1,286047002.7,N
1663758635.9,286047000.4,N
1663758655.7,286046999.9,N
1663758675.5,286046999.7,N
1663758695.4,286047002.7,N
1663758715.2,286046999.7,N
1663758735.0,286046999.8,N
1663758735.9,286046999.8,N
1663758755.8,286046999.9,N
1663758775.6,286046998.2,N
1663758795.5,286046999.0,N
1663758815.3,286046998.5,N
1663758835.1,286046998.1,N
1663758855.9,286047000.5,N
1663758875.7,286047002.8,N
1663758895.5,286047002.2,N
1663758915.4,286047002.0,N
1663758935.2,286047000.8,N
1663758955.1,286047000.3,N
1663758956.0,286047000.3,N
1663758975.8,286047002.4,N
1663758995.6,286046998.1,N
1663759015.5,286047000.4,N
1663759035.3,286046998.1,N
1663759055.1,286046996.9,N
1663759075.9,286046996.5,N
1663759095.7,286046998.3,N
1663759115.6,286046999.0,N
1663759135.4,286046998.4,N
1663759155.2,286047001.2,N
1663759175.1,286047000.8,N
1663759176.0,286047000.8,N
1663759195.8,286047000.9,N
1663759215.6,286047001.1,N
1663759235.5,286046998.1,N
1663759255.3,286047001.2,N
1663759275.2,286047002.8,N
1663759295.9,286047000.1,N
1663759315.7,286047002.5,N
1663759335.6,286046999.7,N
1663759355.4,286046999.8,N
1663759375.2,286047000.1,N
1663759395.1,286047000.0,N
1663759396.0,286047000.0,N
1663759415.8,286047000.3,N
1663759435.7,286047000.2,N
1663759455.5,286046999.9,N
1663759475.3,286047000.3,N
1663759495.2,286047000.2,N
1663759515.0,286047002.7,N
1663759515.9,286047002.7,N
1663759535.8,286047004.0,N
1663759555.6,286047001.4,N
1663759575.4,286047001.6,N
1663759595.3,286047001.8,N
1663759615.1,286047002.1,N
1663759635.8,286047000.5,N
1663759655.7,286046998.5,N
1663759675.5,286047000.8,N
1663759695.4,286046999.8,N
1663759715.2,286047001.1,N
1663759735.0,286047000.7,N
1663759735.9,286047000.7,N
1663759755.8,286046998.2,N
1663759775.6,286046998.6,N
1663759795.5,286046998.8,N
1663759815.3,286046998.8,N
1663759835.1,286046998.8,N
1663759855.9,286047000.4,N
1663759875.7,286047000.4,N
1663759895.5,286047000.8,N
1663759915.4,286047000.7,N
1663759935.2,286047000.7,N
1663759955.1,286046998.9,N
1663759956.0,286046998.9,N
1663759975.8,286046998.1,N
1663759995.6,286047000.7,N
1663760015.5,286047000.1,N
1663760035.3,286047000.8,N
1663760055.2,286046999.8,N
1663760075.9,286047000.4,N
1663760095.7,286047000.1,N
1663760115.6,286047002.3,N
1663760135.4,286047002.2,N
1663760155.3,286046999.7,N
1663760175.1,286047002.4,N
1663760176.0,286047002.4,N
1663760195.8,286046999.8,N
1663760215.7,286047000.1,N
1663760235.5,286047002.2,N
1663760255.3,286047000.4,N
1663760275.2,286047000.9,N
1663760295.0,286046999.8,N
1663760295.9,286046999.8,N
1663760315.8,286047000.7,N
1663760335.6,286047000.4,N
1663760355.4,286047002.3,N
1663760375.3,286047002.6,N
1663760395.1,286047002.5,N
1663760415.8,286047001.8,N
1663760435.7,286047001.8,N
1663760455.5,286047001.4,N
1663760475.4,286047001.7,N
1663760495.2,286047002.4,N
1663760515.0,286047004.3,Y
1663760515.9,286047004.3,P
1663760535.8,286047002.2,N
1663760555.6,286047001.9,N
1663760575.5,286047002.0,N
1663760595.3,286047002.7,N
1663760615.1,286047002.2,N
1663760635.9,286047002.4,N
1663760655.7,286047001.9,N
1663760675.5,286046999.7,N
1663760695.4,286047002.6,N
1663760715.2,286047001.5,N
1663760735.0,286047001.7,N
1663760736.0,286047001.7,N
1663760755.8,286047004.0,Y
1663760775.6,286047000.2,P
1663760795.5,286047000.3,N
1663760815.3,286046998.2,N
1663760835.1,286046998.6,N
1663760855.9,286047001.0,N
1663760875.7,286047000.1,N
1663760895.6,286047002.8,N
1663760915.4,286047000.3,N
1663760935.2,286046999.8,N
1663760955.1,286046999.9,N
1663760956.0,286046999.9,N
1663760975.8,286046998.1,N
1663760995.6,286047000.8,N
1663761015.5,286047000.6,N
1663761035.3,286046999.1,N
1663761055.2,286046997.0,N
1663761075.9,286046996.9,N
1663761095.7,286046999.4,N
1663761115.6,286046997.0,N
1663761135.4,286046997.4,N
1663761155.3,286046997.2,N
1663761175.1,286046998.5,N
1663761176.0,286046998.5,N
1663761195.8,286046998.3,N
1663761215.7,286047000.7,N
1663761235.5,286047000.1,N
1663761255.3,286047002.6,N
1663761275.2,286047001.5,N
1663761295.0,286047002.0,N
1663761295.9,286047002.0,N
1663761315.8,286047004.2,N
1663761335.6,286047003.2,N
1663761355.4,286047005.7,N
1663761375.3,286047003.4,N
1663761395.1,286047003.5,N
1663761415.9,286047001.4,N
1663761435.7,286047004.1,N
1663761455.5,286047004.3,N
1663761475.4,286047003.7,N
1663761495.2,286047003.0,N
1663761515.0,286047003.2,N
1663761516.0,286047003.2,N
1663761535.8,286047003.1,N
1663761555.6,286047003.3,N
1663761575.5,286047003.3,N
1663761595.3,286047003.0,N
